Weather in Andermatt

Switzerland     46°38′10″N   8°35′26″E
temp.,
°C
wind,
m/s
gust,
m/s
humid.,
%
clouds,
%
prec.,
mm/h
press.,
hPa
HPBL,
m
21 june, mon
mon2123:00+9sse559197 1.6 101379
02:00+9s339049 2.3 101232
05:00+10sse229392 0.9 101166
08:00+11sse23856 2.1 1011256
11:00+14se236332 0.5 10101123
14:00+14se136959 2.6 1010885
17:00+14se34666 2.8 10101205
20:00+12sse34738 3.7 1010673
22 june, tue
tue2223:00+9sse229163 0.4 101370
02:00+7sse11924 0.7 101312
05:00+7se22914 0.3 101213
08:00+11sse22784 0.7 1011280
11:00+13s137282 1.8 1012850
14:00+13sse127318 4.8 1013755
17:00+13ne027046 3.2 1014736
20:00+10nw228793 5.1 1016232
23 june, wed
wed2323:00+8ne119075 0.4 101891
02:00+8e1195100 0.4 1018115
05:00+8ene119389 0.5 101855
08:00+9ene118618 1.1 1018215
11:00+12e1371100 1.2 1017873
14:00+14se1458100 2.8 10161163
17:00+11sse347584 2.9 1017796
20:00+8s2292100 6.6 1019208
24 june, thu
thu2423:00+8sse339063 2.8 1020147
02:00+7sse339081 2.9 101936
05:00+6sse229058 0.0 101915
08:00+9s11810 0.3 1018167
11:00+12ene02713 2.4 1017789
14:00+11nnw1269100 8.1 1017550
17:00+8wnw3393100 6.0 1020334
20:00+8ssw1181100 9.4 1020175
25 june, fri
fri2523:00+5w118697 0.0 102110
02:00+4wsw118669 0.0 102010
05:00+3w01895 0.0 102010
08:00+7n118225 0.0 1019255
11:00+9nnw3284100 0.9 1018688
14:00+7nnw2296100 6.9 1019413
17:00+9nnw228491 5.8 1019531
20:00+8nw228467 6.4 1019483